Location: S�tio Afonso Gruber
(26.1760°S, 49.5250°W)
Time: 00:45:39
(UTC+00:00)

Cosmos 2016 Rocket - Pass Details

Date: 02 October 2020
Orbit: 946 x 1001 km, 83.0° (Epoch: 27 October)

Event Time Altitude Azimuth Distance (km) Brightness Sun altitude
Rises 07:32:37 0° 357° (N) 3,623 6.8 -19.3°
Reaches altitude 10° 07:35:05 10° 358° (N) 2,691 6.1 -18.8°
Maximum altitude 07:41:16 87° 86° (E) 984 4.0 -17.4°
Drops below altitude 10° 07:47:36 10° 174° (S) 2,760 6.6 -16.0°
Sets 07:50:09 0° 174° (S) 3,722 7.3 -15.5°
